Weather History for CWLY - May, 2014

Change the Weather History Date:

Wednesday, May 14, 2014

  Actual Average Record
Temperature  
Mean Temperature 70 °F -  
Max Temperature 86 °F 65 °F 91 °F (2012)
Min Temperature 53 °F 44 °F 37 °F (2006)
Cooling Degree Days 4    
Growing Degree Days 20 (Base 50)    
Moisture  
Dew Point 44 °F    
Average Humidity 43    
Maximum Humidity 72    
Minimum Humidity 19    
Precipitation  
Precipitation 0.00 in - - ()
Sea Level Pressure  
Sea Level Pressure 30.23 in    
Wind  
Wind Speed 7 mph ()    
Max Wind Speed 16 mph    
Max Gust Speed 22 mph    
Visibility 9.0 miles    
Events      
Averages and records for this station are not official NWS values.
T = Trace of Precipitation, MM = Missing Value Source: Averaged Metar Reports

Daily Weather History Graph

Daily Weather History Graph

Search for Another Location

Airport or City:

Trip Planner

Search our weather history database for the weather conditions in past years. The results will help you decide how hot, cold, wet, or windy it might be!

Date:

Astronomy

May. 14, 2014 Rise Set
Actual Time 5:20 AM PDT 8:45 PM PDT
Civil Twilight 4:41 AM PDT 9:25 PM PDT
Nautical Twilight 3:48 AM PDT 10:18 PM PDT
Astronomical Twilight 2:37 AM PDT 11:30 PM PDT
Moon 8:54 PM PDT (5/14) 5:28 AM PDT (5/14)
Length of Visible Light 16h 43m
Length of Day
15h 24m
Full, 100% of the Moon is Illuminated
May 14
Full
May 14
Full
May 21
Last Quarter
May 28
New
Jun 5
First Quarter

Hourly Weather History & Observations

Time (PDT) Temp. Dew Point Humidity Pressure Visibility Wind Dir Wind Speed Gust Speed Precip Events Conditions
12:00 AM 66.2 °F 42.8 °F 43% 30.32 in 9.0 mi South 13.8 mph 21.9 mph N/A   Clear
1:00 AM 64.4 °F 44.6 °F 49% 30.33 in 9.0 mi SSE 6.9 mph - N/A   Clear
2:00 AM 62.6 °F 44.6 °F 52% 30.33 in 9.0 mi SSE 8.1 mph - N/A   Clear
3:00 AM 59.0 °F 44.6 °F 59% 30.34 in 9.0 mi South 5.8 mph - N/A   Clear
4:00 AM 57.2 °F 44.6 °F 63% 30.35 in 9.0 mi South 5.8 mph - N/A   Clear
5:00 AM 55.4 °F 44.6 °F 67% 30.36 in 9.0 mi South 6.9 mph - N/A   Clear
6:00 AM 53.6 °F 44.6 °F 72% 30.37 in 9.0 mi SSW 4.6 mph - N/A   Clear
7:00 AM 53.6 °F 44.6 °F 72% 30.38 in 9.0 mi Variable 2.3 mph - N/A   Clear
8:00 AM 55.4 °F 46.4 °F 72% 30.37 in 9.0 mi South 3.5 mph - N/A   Clear
9:00 AM 60.8 °F 44.6 °F 55% 30.35 in 9.0 mi South 5.8 mph - N/A   Clear
10:00 AM 64.4 °F 46.4 °F 52% 30.31 in 9.0 mi South 4.6 mph - N/A   Clear
11:00 AM 68.0 °F 46.4 °F 46% 30.29 in 9.0 mi South 4.6 mph - N/A   Clear
12:00 PM 73.4 °F 46.4 °F 38% 30.25 in 9.0 mi NNW 3.5 mph - N/A   Clear
12:48 PM 78.8 °F 46.4 °F 32% 30.20 in 9.0 mi South 11.5 mph 17.3 mph N/A   Clear
1:00 PM 78.8 °F 46.4 °F 32% 30.19 in 9.0 mi South 15.0 mph - N/A   Clear
2:00 PM 80.6 °F 44.6 °F 28% 30.17 in 9.0 mi SSW 16.1 mph 21.9 mph N/A   Clear
3:00 PM 82.4 °F 44.6 °F 26% 30.14 in 9.0 mi SSW 11.5 mph 18.4 mph N/A   Clear
4:00 PM 84.2 °F 42.8 °F 23% 30.13 in 9.0 mi South 12.7 mph 20.7 mph N/A   Clear
5:00 PM 86.0 °F 39.2 °F 19% 30.11 in 9.0 mi South 10.4 mph 17.3 mph N/A   Clear
6:00 PM 84.2 °F 39.2 °F 20% 30.09 in 9.0 mi SW 5.8 mph - N/A   Clear
7:00 PM 80.6 °F 41.0 °F 24% 30.08 in 9.0 mi Variable 2.3 mph - N/A   Clear
8:00 PM 77.0 °F 41.0 °F 28% 30.09 in 9.0 mi South 3.5 mph - N/A   Clear
9:00 PM 75.2 °F 39.2 °F 27% 30.09 in 9.0 mi South 4.6 mph - N/A   Clear
10:00 PM 73.4 °F 41.0 °F 31% 30.11 in 9.0 mi South 4.6 mph - N/A   Clear
11:00 PM 71.6 °F 41.0 °F 33% 30.12 in 9.0 mi South 5.8 mph - N/A   Clear